Location: Unspecified
(25.6949°N, 0.0000°E)
Time: 04:47:42
(UTC+00:00)

Cosmos 2150 - Visible Passes

Search period start: 04 April 2026 00:00
Search period end: 14 April 2026 00:00
Orbit: 771 x 794 km, 74.0° (Epoch: 28 March)

Date Brightness Start Highest point End Pass type
(mag) Time Alt. Az. Time Alt. Az. Time Alt. Az.
4 Apr 4.9 04:08:31 35° SSW 04:10:50 88° ESE 04:16:06 10° NNE visible
5 Apr 5.7 03:37:23 46° SE 03:38:18 51° ESE 03:43:23 10° NNE visible
5 Apr 6.8 05:18:36 10° W 05:20:52 13° WNW 05:23:09 10° NW visible
6 Apr 6.6 03:06:08 30° E 03:06:08 30° E 03:10:20 10° NE visible
6 Apr 6.3 04:46:45 20° W 04:48:05 21° WNW 04:52:04 10° NNW visible
7 Apr 7.6 02:34:45 16° ENE 02:34:45 16° ENE 02:36:46 10° ENE visible
7 Apr 5.6 04:15:22 35° WNW 04:15:22 35° WNW 04:20:11 10° N visible
8 Apr 5.5 03:43:53 48° NNW 03:43:53 48° NNW 03:47:56 10° N visible
9 Apr 6.2 03:12:19 36° NNE 03:12:19 36° NNE 03:15:24 10° NNE visible
10 Apr 7.2 02:40:41 22° NE 02:40:41 22° NE 02:42:36 10° NNE visible
10 Apr 6.9 04:21:16 14° NW 04:21:16 14° NW 04:22:55 10° NW visible
11 Apr 7.9 02:08:59 12° NE 02:08:59 12° NE 02:09:28 10° NE visible
11 Apr 6.8 03:49:35 18° NW 03:49:35 18° NW 03:51:34 10° NNW visible
12 Apr 6.9 03:17:49 20° NNW 03:17:49 20° NNW 03:19:35 10° N visible
13 Apr 7.3 02:46:00 18° N 02:46:00 18° N 02:47:16 10° N visible
